Location: Central Falls
(41.8900°N, 71.3929°W)
Time: 03:07:41
(UTC+00:00)

Vanguard 2 - Pass Details

Date: 03 December 2023
Orbit: 554 x 2918 km, 32.9° (Epoch: 01 March)

Event Time Altitude Azimuth Distance (km) Brightness Sun altitude
Rises 05:24:50 0° 264° (W) 6,322 - -67.6°
Reaches altitude 10° 05:29:37 10° 260° (W) 5,017 - -67.1°
Maximum altitude 05:42:20 51° 191° (S) 2,045 - -65.7°
Drops below altitude 10° 05:50:08 10° 118° (ESE) 3,143 - -64.7°
Sets 05:52:28 0° 113° (ESE) 3,855 - -64.4°
